STARLINK-31687, 59798

Orbit data source: Space-Track

STARLINK-31687, 59798 is a payload satellite owned by SpaceX/Seattle (US) in LEO that was launched on Sat, 18 May 2024 UTC via an FALCON 9 launch vehicle from the Air Force Eastern Test Range (AFETR). Payload-class satellites include a variety of spacecraft equipped with specific instruments for various scientific and technological missions. These include communications satellites like Starlink; space stations such as the ISS; scientific satellites like the Hubble; Earth observation satellites from companies like Planet Labs, Umbra, and HawkEye 360; GPS; miniature CubeSats for education and research; and military/defense satellites.

Loading next visibility...
Identifier
59798, 2024-093S
Orbit
LEO
Country
Flag of USUS
Related business
Manufacturer
SpaceX/Seattle
Mission
Operational spacecraft
Bus & Motor
STARLINK V2M, Unknown motor
Mass
730 kg wet, ~700 kg dry
Launch date (UTC)
2024-05-18 (1 year ago)
Launch vehicle
FALCON 9
Launch site
Air Force Eastern Test Range (AFETR)
Object type
Payload
Rocket body
Debris
Shape & HBR
Unknown shape, 17.7 m
Radar Cross Section
Large (>1 m²)

Expand to show TLE details & history
Last TLE update: 9 hours ago

TLE from 9 hours ago
0 STARLINK-31687
1 59798U 24093S   25292.27581538  .00002285  00000-0  92521-4 0  9995
2 59798  43.0020 287.9013 0000947 279.3249  80.7496 15.27584980 81063
Epoch: 2025-10-19T06:37Z
TLE epoch observation values (Epoch: 2025-10-19T06:37:10.448Z)
Latitude
-0°
Longitude
160.61295°
Altitude
482.705 km
Speed
7.626 km/s
True Right ascension
19h 11m 36s
True Declination
0° 00' 00"
Sunlit
Object was in daylight at epoch
Visualization orbit readout
Latitude
Unknown
Longitude
Unknown
Altitude
Unknown
Speed
Unknown
Apparent Right ascension
Unknown
Apparent Declination
Unknown
Sunlit
N/A
Visualization observer readout
Local Sidereal Time
10:51:18
Azimuth
Unknown
Elevation
Unknown
Doppler factor
Unknown
Orbital elements
Apogee altitude
485.629 km
Perigee altitude
484.329 km
Semi-major axis
6,863.116 km
Eccentricity
0.00009
Inclination
43.002°
RAAN
287.9013°
Arg. of periapsis
279.3249°
True anomaly
80.76031°
Mean anomaly
80.7496°
Eccentric anomaly
80.75496°
Mean motion
3.81734 °/min
Orbital period
94.31 mins
BSTAR
0.000092521
Loading maneuver chart data...
Computing Atmospheric mass density...
Loading historical data...
Loading historical data...
Loading historical data...
Loading historical data...
Loading historical data...
Loading historical data...
Loading historical data...

Documentation

Showing up to 5 results
|